Lid_Strength_Index
12 12 12 13 13 13 14 14 17 15 15 13 14 14 16 15 14 14 14 14 14 15 15 16 17 17 17 18 17 17 17 17 18 18 18 18 18 18 17 17 18 17 17 17
15 12 12 14 12 12 13 14 15 14 14 11 10 12 15 16 16 16 15 15 16 16 17 16 17 17 17 17 17 17 17 18 18 18 18 17 18 18 18 17 17 16 16 15
16 12 13 16 13 13 12 13 15 17 15 13 12 13 14 15 16 16 16 16 17 17 16 17 17 16 17 17 17 18 18 18 18 18 18 18 18 17 18 17 16 15 15 15
16 14 19 13 11 11 12 13 14 15 14 13 11 11 11 11 14 15 16 16 16 16 17 17 17 17 17 17 17 18 18 18 18 18 18 18 18 18 17 16 16 16 15 15
16 17 13 12 12 13 14 13 14 15 14 13 11 10 11 11 11 12 13 14 14 15 15 16 16 16 17 17 17 18 18 18 18 18 18 17 17 17 16 16 16 16 16 15
15 17 19 13 11 10 12 15 11 13 15 14 12 14 13 12 11 11 11 13 14 15 16 16 17 17 18 18 18 18 18 18 17 17 16 16 16 16 16 15 16 15 16 15
16 16 14 11 11 11 15 15 11 12 14 14 15 14 12 12 12 11 11 14 14 15 16 17 17 17 18 18 18 17 17 16 16 16 16 16 16 16 15 16 16 16 16 16
15 17 17 11 10 13 12 11 12 12 12 13 12 13 13 13 14 14 14 14 15 16 16 16 15 16 17 18 17 16 16 16 16 16 16 15 15 15 15 15 16 16 16 16
13 12 10 10 11 10 11 12 12 13 12 12 12 12 13 14 15 15 15 15 14 15 15 15 14 14 16 17 16 16 16 16 16 16 15 15 15 16 16 16 15 16 16 16
12 10 10 10 11 12 12 13 12 13 13 12 12 12 13 13 14 14 15 14 14 14 15 16 15 15 16 16 16 16 16 16 16 16 16 16 15 15 15 15 16 16 17 17
12 11 11 12 13 12 12 12 13 13 13 13 12 13 13 14 14 14 15 15 14 14 15 16 16 16 16 16 15 16 16 17 16 16 16 16 16 16 16 17 15 16 16 16
15 12 12 12 12 13 13 14 14 14 13 13 13 13 14 15 15 15 15 14 15 15 15 16 16 16 15 14 14 15 16 16 15 16 16 16 17 17 15 15 15 15 16 16
13 13 12 13 13 14 14 15 15 15 16 14 15 14 15 16 16 16 16 15 15 15 15 15 15 15 14 14 14 14 15 16 16 16 17 17 17 17 19 17 15 16 16 16
13 14 14 14 14 15 16 15 16 17 18 17 17 17 17 17 18 18 18 15 14 14 15 15 16 17 15 14 15 15 16 17 16 16 17 17 17 17 17 18 19 19 18 19
15 14 15 17 17 17 18 18 18 18 18 18 19 18 17 18 19 20 20 18 15 15 16 17 18 21 19 17 17 17 17 17 17 17 17 18 18 18 18 19 19 20 20 20
17 20 22 21 19 20 20 20 19 19 19 20 19 20 21 21 22 22 21 20 16 18 22 22 23 24 22 20 19 19 19 19 19 18 18 18 18 19 20 20 20 21 21 22
21 20 23 21 21 22 21 22 21 19 21 20 20 21 22 22 22 23 24 24 24 23 22 23 25 26 23 20 18 18 19 18 20 18 18 19 19 20 20 21 21 22 22 22
20 20 21 19 19 21 23 23 22 22 22 21 22 22 22 22 21 24 25 25 25 25 25 25 25 25 23 21 18 18 18 18 19 20 20 20 21 21 21 22 23 23 23 23
24 22 23 21 23 24 22 22 22 23 23 23 22 22 23 24 23 24 23 23 22 22 25 25 20 22 22 21 19 18 19 20 20 21 22 24 22 22 22 23 23 24 24 24
24 24 23 24 27 26 24 25 23 24 24 23 23 23 24 26 25 24 23 25 26 25 24 23 22 21 22 22 20 19 20 20 21 22 22 22 23 23 24 27 27 25 24 24
23 23 24 25 26 27 27 24 23 24 25 24 21 23 23 25 25 24 20 21 25 25 24 23 21 21 22 21 20 20 21 21 22 23 23 24 25 24 24 25 25 24 24 24
23 23 24 24 25 25 25 23 22 24 23 24 25 25 25 25 25 25 28 22 24 26 23 22 22 24 23 22 21 22 22 23 24 24 24 24 24 24 24 25 26 25 25 25
23 23 23 24 23 22 24 23 23 23 24 25 25 23 20 20 19 19 21 24 23 24 22 23 25 25 24 22 22 23 24 24 24 25 25 25 26 26 26 26 26 26 26 26
23 23 23 24 24 23 22 23 22 23 24 24 25 26 22 22 23 22 23 25 25 23 23 24 23 23 24 24 24 24 25 25 25 26 26 31 27 27 27 27 27 26 26 27
23 24 24 24 21 19 22 23 24 24 24 24 25 25 24 23 21 23 23 24 23 23 24 24 23 24 24 25 25 26 26 26 27 27 28 27 28 28 27 27 27 27 27 26
22 21 21 21 18 20 21 21 20 21 21 23 23 24 24 23 24 24 23 24 24 24 24 25 26 25 26 26 26 27 27 28 28 28 29 29 28 28 28 28 27 27 26 25
22 23 22 22 20 20 20 18 20 21 21 21 22 25 24 24 24 24 25 25 25 25 26 27 27 27 27 27 28 28 28 28 29 29 29 29 29 28 28 27 27 26 26 26